When you browse on this site, cookies collect data to enhance your experience and personalize the content and advertising you see.
Visit our Privacy Policy to learn more. By continuing to use the site, you agree to this use of cookies and data.

Hourly Weather Hodmezovasarhely

Today, 22 September, Tuesday

Time Temperature Precipitation Wind Pressure Humidity
00:00 +17°C° 0 mm 2 mps 756 mmHg 46%
01:00 +18°C° 0 mm 1 mps 756 mmHg 48%
02:00 +18°C° 0 mm 1 mps 756 mmHg 49%
03:00 +16°C° 0 mm 1 mps 756 mmHg 51%
04:00 +16°C° 0 mm 1 mps 755 mmHg 52%
05:00 +18°C° 0 mm 1 mps 755 mmHg 50%
06:00 +18°C° 0 mm 2 mps 756 mmHg 48%
07:00 +19°C° 0 mm 2 mps 756 mmHg 46%
08:00 +22°C° 0 mm 3 mps 756 mmHg 41%
09:00 +25°C° 0 mm 3 mps 756 mmHg 36%
10:00 +27°C° 0 mm 4 mps 755 mmHg 31%
11:00 +28°C° 0 mm 4 mps 755 mmHg 29%
12:00 +29°C° 0 mm 4 mps 754 mmHg 27%
13:00 +32°C° 0 mm 5 mps 754 mmHg 25%
14:00 +32°C° 0 mm 5 mps 753 mmHg 25%
15:00 +30°C° 0 mm 5 mps 753 mmHg 26%
16:00 +30°C° 0 mm 5 mps 752 mmHg 26%
17:00 +28°C° 0 mm 4 mps 752 mmHg 31%
18:00 +26°C° 0 mm 4 mps 752 mmHg 35%
19:00 +23°C° 0 mm 4 mps 752 mmHg 39%
20:00 +23°C° 0 mm 4 mps 752 mmHg 40%
21:00 +22°C° 0 mm 4 mps 752 mmHg 41%
22:00 +22°C° 0 mm 4 mps 752 mmHg 42%
23:00 +21°C° 0 mm 4 mps 752 mmHg 42%

Tomorrow, 23 September, Wednesday

Time Temperature Precipitation Wind Pressure Humidity
00:00 +20°C° 0 mm 4 mps 752 mmHg 43%
01:00 +20°C° 0 mm 4 mps 752 mmHg 43%
02:00 +20°C° 0 mm 4 mps 752 mmHg 43%
03:00 +19°C° 0 mm 3 mps 751 mmHg 44%
04:00 +19°C° 0 mm 3 mps 751 mmHg 44%
05:00 +19°C° 0 mm 4 mps 751 mmHg 43%
06:00 +20°C° 0 mm 4 mps 751 mmHg 41%
07:00 +20°C° 0 mm 5 mps 751 mmHg 39%
08:00 +22°C° 0 mm 5 mps 751 mmHg 38%
09:00 +25°C° 0 mm 5 mps 751 mmHg 37%
10:00 +27°C° 0 mm 4 mps 751 mmHg 37%
11:00 +28°C° 0 mm 4 mps 751 mmHg 35%
12:00 +30°C° 0 mm 4 mps 750 mmHg 34%
13:00 +32°C° 0 mm 4 mps 750 mmHg 32%
14:00 +30°C° 0.2 mm 4 mps 749 mmHg 36%
15:00 +29°C° 0.2 mm 3 mps 749 mmHg 39%
16:00 +28°C° 0.2 mm 3 mps 748 mmHg 42%
17:00 +26°C° 0.4 mm 3 mps 749 mmHg 50%
18:00 +24°C° 0.4 mm 2 mps 749 mmHg 58%
19:00 +21°C° 0.4 mm 2 mps 749 mmHg 66%
20:00 +21°C° 0.5 mm 2 mps 749 mmHg 68%
21:00 +20°C° 0.5 mm 2 mps 749 mmHg 70%
22:00 +20°C° 0.5 mm 2 mps 750 mmHg 72%
23:00 +19°C° 0.2 mm 2 mps 750 mmHg 74%

Day after tomorrow, 24 September, Thursday

Time Temperature Precipitation Wind Pressure Humidity
00:00 +19°C° 0.2 mm 2 mps 750 mmHg 76%
01:00 +18°C° 0.2 mm 2 mps 750 mmHg 78%
02:00 +18°C° 0 mm 2 mps 750 mmHg 79%
03:00 +18°C° 0 mm 2 mps 750 mmHg 80%
04:00 +17°C° 0 mm 2 mps 750 mmHg 81%
05:00 +18°C° 0 mm 2 mps 750 mmHg 79%
06:00 +18°C° 0 mm 2 mps 750 mmHg 77%
07:00 +19°C° 0 mm 3 mps 750 mmHg 75%
08:00 +21°C° 0 mm 3 mps 751 mmHg 67%
09:00 +24°C° 0 mm 3 mps 751 mmHg 59%
10:00 +26°C° 0 mm 3 mps 751 mmHg 51%
11:00 +27°C° 0 mm 3 mps 751 mmHg 48%
12:00 +27°C° 0 mm 4 mps 750 mmHg 45%
13:00 +28°C° 0 mm 4 mps 750 mmHg 42%
14:00 +28°C° 0 mm 3 mps 750 mmHg 42%
15:00 +28°C° 0 mm 3 mps 750 mmHg 41%
16:00 +28°C° 0 mm 2 mps 749 mmHg 41%
17:00 +27°C° 0 mm 2 mps 749 mmHg 44%
18:00 +26°C° 0 mm 1 mps 749 mmHg 47%
19:00 +25°C° 0 mm 1 mps 749 mmHg 50%
20:00 +24°C° 0 mm 1 mps 750 mmHg 52%
21:00 +23°C° 0 mm 2 mps 750 mmHg 54%
22:00 +23°C° 0 mm 2 mps 750 mmHg 56%
23:00 +21°C° 0 mm 2 mps 749 mmHg 57%

25 September, Friday

Time Temperature Precipitation Wind Pressure Humidity
00:00 +21°C° 0 mm 2 mps 749 mmHg 59%
01:00 +20°C° 0 mm 2 mps 749 mmHg 60%
02:00 +20°C° 0 mm 2 mps 748 mmHg 62%
03:00 +20°C° 0 mm 2 mps 748 mmHg 63%
04:00 +19°C° 0 mm 2 mps 748 mmHg 65%
05:00 +20°C° 0 mm 3 mps 747 mmHg 62%
06:00 +20°C° 0 mm 3 mps 747 mmHg 60%
07:00 +21°C° 0 mm 4 mps 747 mmHg 58%
08:00 +22°C° 0 mm 4 mps 746 mmHg 52%
09:00 +25°C° 0 mm 5 mps 746 mmHg 46%
10:00 +27°C° 0 mm 6 mps 745 mmHg 41%
11:00 +28°C° 0 mm 6 mps 745 mmHg 37%
12:00 +29°C° 0 mm 7 mps 744 mmHg 33%
13:00 +30°C° 0 mm 7 mps 744 mmHg 29%
14:00 +29°C° 0 mm 6 mps 743 mmHg 35%
15:00 +27°C° 0 mm 4 mps 742 mmHg 42%
16:00 +26°C° 0 mm 2 mps 742 mmHg 49%
17:00 +25°C° 0.5 mm 3 mps 741 mmHg 53%
18:00 +23°C° 0.5 mm 4 mps 741 mmHg 57%
19:00 +22°C° 0.5 mm 4 mps 741 mmHg 62%
20:00 +21°C° 0.5 mm 5 mps 740 mmHg 68%
21:00 +20°C° 0.5 mm 6 mps 740 mmHg 75%
22:00 +20°C° 0.5 mm 7 mps 740 mmHg 82%
23:00 +20°C° 0.7 mm 6 mps 739 mmHg 82%

26 September, Saturday

Time Temperature Precipitation Wind Pressure Humidity
00:00 +19°C° 0.7 mm 6 mps 738 mmHg 83%
01:00 +19°C° 0.7 mm 6 mps 738 mmHg 84%
02:00 +19°C° 0.7 mm 6 mps 738 mmHg 82%
03:00 +19°C° 0.7 mm 5 mps 737 mmHg 80%
04:00 +20°C° 0.7 mm 5 mps 737 mmHg 79%
05:00 +19°C° 0.4 mm 5 mps 738 mmHg 78%
06:00 +17°C° 0.4 mm 5 mps 738 mmHg 78%
07:00 +17°C° 0.4 mm 5 mps 738 mmHg 77%
08:00 +16°C° 0.1 mm 5 mps 738 mmHg 75%
09:00 +16°C° 0.1 mm 5 mps 739 mmHg 72%
10:00 +17°C° 0.1 mm 4 mps 739 mmHg 70%
11:00 +16°C° 0 mm 5 mps 739 mmHg 65%
12:00 +17°C° 0 mm 5 mps 738 mmHg 60%
13:00 +19°C° 0 mm 5 mps 738 mmHg 56%
14:00 +16°C° 1.2 mm 5 mps 738 mmHg 63%
15:00 +15°C° 1.2 mm 6 mps 738 mmHg 70%
16:00 +14°C° 1.2 mm 6 mps 737 mmHg 78%
17:00 +12°C° 2.7 mm 7 mps 738 mmHg 80%
18:00 +11°C° 2.7 mm 7 mps 738 mmHg 82%
19:00 +10°C° 2.7 mm 7 mps 738 mmHg 84%
20:00 +10°C° 0.7 mm 7 mps 738 mmHg 81%
21:00 +10°C° 0.7 mm 7 mps 738 mmHg 78%
22:00 +9°C° 0.7 mm 7 mps 738 mmHg 76%
23:00 +10°C° 0 mm 7 mps 738 mmHg 74%

27 September, Sunday

Time Temperature Precipitation Wind Pressure Humidity
00:00 +10°C° 0 mm 6 mps 739 mmHg 73%
01:00 +10°C° 0 mm 6 mps 739 mmHg 72%
02:00 +10°C° 0.2 mm 7 mps 740 mmHg 73%
03:00 +10°C° 0.2 mm 7 mps 740 mmHg 74%
04:00 +10°C° 0.2 mm 8 mps 741 mmHg 76%
05:00 +9°C° 0.4 mm 8 mps 741 mmHg 76%
06:00 +9°C° 0.4 mm 8 mps 741 mmHg 76%
07:00 +9°C° 0.4 mm 8 mps 742 mmHg 76%
08:00 +10°C° 0.1 mm 8 mps 742 mmHg 70%
09:00 +11°C° 0.1 mm 8 mps 743 mmHg 65%
10:00 +11°C° 0.1 mm 7 mps 743 mmHg 59%
11:00 +12°C° 0 mm 7 mps 744 mmHg 55%
12:00 +14°C° 0 mm 6 mps 744 mmHg 51%
13:00 +15°C° 0 mm 6 mps 745 mmHg 47%
14:00 +16°C° 0 mm 5 mps 745 mmHg 46%
15:00 +17°C° 0 mm 4 mps 745 mmHg 45%
16:00 +17°C° 0 mm 3 mps 745 mmHg 44%
17:00 +16°C° 0 mm 3 mps 745 mmHg 48%
18:00 +15°C° 0 mm 2 mps 746 mmHg 52%
19:00 +14°C° 0 mm 2 mps 746 mmHg 55%
20:00 +13°C° 0 mm 2 mps 746 mmHg 62%
21:00 +12°C° 0 mm 2 mps 747 mmHg 69%
22:00 +10°C° 0 mm 2 mps 747 mmHg 75%
23:00 +10°C° 0 mm 2 mps 747 mmHg 75%
Show more